STARLINK-1113

decayed
NORAD ID: 44926 Int'l Des: 2020-001 Owner: SPXS Country: US Constellation: starlink
LEOCIRCULAR

关于 STARLINK-1113

正在加载描述...

高度历史

Altitude vs Time

uPlot chart will show altitude changes over time

两行轨道根数

1 44926U 20001N 24264.92304358 .30805268 12231-4 30255-2 0 9992
2 44926 53.0318 151.3227 0005948 232.4535 235.8537 16.37428369260996
Epoch: Sep 20, 2024 • Age: 8636 hours

当前状态

Position data unavailable
发射日期 Jan 7, 2020
运行时间 5.6 years
衰减日期 Sep 21, 2024
类型 internet

技术详情

分类 Payload
质量 260.00 kg
干质量 248.00 kg
总质量 260.00 kg
长度 0.20 m
直径 2.80 m
跨度 9.00 m
形状 Box + pan
制造商 SPXS
平台类型 Starlink
阶段状态 Unknown Transfer Status
所有者/国家 SPXS/US

大型星座

Loading constellations...